DAL69A EDDS-EDDM

Flight info

Callsign DAL69A
Flight time 0h 25m
Altitude 19000
Route ABTAL4H/07 ABTAL L173 RIXED Y161 RIDAR Z98 WLD T104 ROKIL ROKIL1A
Aircraft A20N/M-SDE2E3FGHIRWXY/LB1

Departure

Time 2026-04-30 20:36
Airport Stuttgart Airport (EDDS)

Arrival

Time 2026-04-30 21:01
Airport Munich Airport (EDDM)
Time Latitude Longitude Altitude Speed Heading
2026-04-30 20:09 48.68949 9.20221 1283 ft 0 kts 163°
2026-04-30 20:21 48.68951 9.20219 1283 ft 1 kts 165°
2026-04-30 20:22 48.68959 9.20217 1283 ft 1 kts 170°
2026-04-30 20:22 48.68992 9.20212 1287 ft 1 kts 181°
2026-04-30 20:22 48.69003 9.20213 1286 ft 3 kts 195°
2026-04-30 20:22 48.69015 9.20220 1287 ft 2 kts 218°
2026-04-30 20:23 48.69022 9.20230 1290 ft 0 kts 238°
2026-04-30 20:23 48.69023 9.20232 1290 ft 0 kts 239°
2026-04-30 20:26 48.69006 9.20163 1288 ft 14 kts 249°
2026-04-30 20:26 48.68888 9.19847 1292 ft 15 kts 203°
2026-04-30 20:26 48.68879 9.19841 1291 ft 0 kts 204°
2026-04-30 20:28 48.68870 9.19850 1291 ft 6 kts 153°
2026-04-30 20:28 48.68672 9.20004 1286 ft 0 kts 169°
2026-04-30 20:31 48.68671 9.20005 1286 ft 1 kts 169°
2026-04-30 20:32 48.68666 9.20006 1287 ft 0 kts 169°
2026-04-30 20:34 48.68655 9.20009 1288 ft 5 kts 168°
2026-04-30 20:35 48.68613 9.20057 1286 ft 11 kts 129°
2026-04-30 20:35 48.68605 9.20181 1286 ft 14 kts 79°
2026-04-30 20:35 48.68872 9.21573 1252 ft 130 kts 75°
2026-04-30 20:36 48.69120 9.22957 1779 ft 126 kts 75°
2026-04-30 20:36 48.69359 9.24168 2490 ft 115 kts 78°
2026-04-30 20:36 48.69720 9.26450 3725 ft 110 kts 84°
2026-04-30 20:37 48.69980 9.27558 4319 ft 118 kts 60°
2026-04-30 20:37 48.70374 9.28625 4900 ft 117 kts 78°
2026-04-30 20:37 48.70584 9.29905 5276 ft 136 kts 82°
2026-04-30 20:37 48.70781 9.31332 5323 ft 138 kts 81°
2026-04-30 20:38 48.71012 9.32744 5328 ft 139 kts 78°
2026-04-30 20:38 48.71276 9.34151 5327 ft 139 kts 78°
2026-04-30 20:38 48.71538 9.35555 5329 ft 138 kts 78°
2026-04-30 20:39 48.72059 9.38370 5325 ft 138 kts 78°
2026-04-30 20:39 48.72319 9.39771 5321 ft 138 kts 78°
2026-04-30 20:39 48.72585 9.41181 5323 ft 140 kts 78°
2026-04-30 20:40 48.73115 9.43998 5333 ft 139 kts 78°
2026-04-30 20:40 48.73378 9.45406 5330 ft 139 kts 78°
2026-04-30 20:40 48.73644 9.46817 5319 ft 137 kts 78°
2026-04-30 20:41 48.74167 9.49605 5321 ft 137 kts 78°
2026-04-30 20:41 48.74432 9.51006 5323 ft 142 kts 78°
2026-04-30 20:41 48.74700 9.52433 5325 ft 139 kts 78°
2026-04-30 20:41 48.74963 9.53839 5330 ft 139 kts 78°
2026-04-30 20:42 48.75223 9.55242 5327 ft 137 kts 77°
2026-04-30 20:42 48.75487 9.56637 5330 ft 138 kts 78°
2026-04-30 20:42 48.76013 9.59430 5330 ft 138 kts 78°
2026-04-30 20:43 48.76277 9.60837 5333 ft 140 kts 78°
2026-04-30 20:43 48.76544 9.62286 5520 ft 145 kts 78°
2026-04-30 20:43 48.76819 9.63772 6132 ft 149 kts 77°
2026-04-30 20:44 48.77457 9.67283 7457 ft 185 kts 76°
2026-04-30 20:44 48.77793 9.69108 8660 ft 179 kts 76°
2026-04-30 20:44 48.78478 9.72764 10685 ft 182 kts 75°
2026-04-30 20:45 48.79216 9.76625 12116 ft 195 kts 74°
2026-04-30 20:45 48.79599 9.78600 12972 ft 195 kts 73°
2026-04-30 20:45 48.79987 9.80581 13812 ft 197 kts 73°
2026-04-30 20:46 48.81152 9.86732 15941 ft 206 kts 73°
2026-04-30 20:46 48.81558 9.88915 16315 ft 228 kts 72°
2026-04-30 20:47 48.82463 9.94061 16881 ft 277 kts 73°
2026-04-30 20:47 48.82981 9.97015 17132 ft 302 kts 73°
2026-04-30 20:48 48.84173 10.03634 17599 ft 347 kts 73°
2026-04-30 20:48 48.84789 10.07188 18230 ft 355 kts 76°
2026-04-30 20:48 48.85138 10.10929 18945 ft 361 kts 83°
2026-04-30 20:48 48.85140 10.14752 19246 ft 365 kts 91°
2026-04-30 20:49 48.84837 10.18592 19360 ft 366 kts 94°
2026-04-30 20:49 48.84516 10.22424 19377 ft 366 kts 94°
2026-04-30 20:49 48.84203 10.26254 19385 ft 365 kts 94°
2026-04-30 20:50 48.83581 10.33913 19390 ft 366 kts 94°
2026-04-30 20:50 48.83240 10.37735 19390 ft 367 kts 98°
2026-04-30 20:50 48.82447 10.41441 19396 ft 373 kts 111°
2026-04-30 20:50 48.81075 10.44799 19395 ft 379 kts 125°
2026-04-30 20:51 48.79278 10.47747 19396 ft 382 kts 129°
2026-04-30 20:51 48.75609 10.53585 19390 ft 381 kts 129°
2026-04-30 20:51 48.73777 10.56508 19391 ft 382 kts 129°
2026-04-30 20:52 48.71951 10.59420 19387 ft 381 kts 129°
2026-04-30 20:52 48.70122 10.62338 19387 ft 382 kts 129°
2026-04-30 20:52 48.66458 10.68172 19379 ft 382 kts 129°
2026-04-30 20:53 48.64653 10.71041 19372 ft 382 kts 129°
2026-04-30 20:53 48.62822 10.73948 19370 ft 382 kts 129°
2026-04-30 20:53 48.60996 10.76863 19365 ft 380 kts 127°
2026-04-30 20:54 48.58790 10.83816 19357 ft 364 kts 95°
2026-04-30 20:54 48.58627 10.87603 19357 ft 361 kts 88°
2026-04-30 20:54 48.58537 10.91384 19355 ft 360 kts 88°
2026-04-30 20:55 48.58339 10.98954 19355 ft 360 kts 89°
2026-04-30 20:55 48.58234 11.02735 19355 ft 360 kts 89°
2026-04-30 20:55 48.58126 11.06525 19375 ft 360 kts 89°
2026-04-30 20:56 48.56499 11.13662 19376 ft 377 kts 122°
2026-04-30 20:56 48.54579 11.16471 19377 ft 387 kts 139°
2026-04-30 20:56 48.50097 11.21013 19362 ft 388 kts 142°
2026-04-30 20:57 48.47857 11.23221 19360 ft 389 kts 142°
2026-04-30 20:57 48.45579 11.25446 19362 ft 389 kts 142°
2026-04-30 20:57 48.43316 11.27638 19362 ft 389 kts 142°
2026-04-30 20:58 48.38748 11.32005 19365 ft 389 kts 143°
2026-04-30 20:58 48.36542 11.34320 19367 ft 383 kts 132°
2026-04-30 20:58 48.34880 11.37332 19207 ft 370 kts 115°
2026-04-30 20:58 48.33920 11.40840 18651 ft 356 kts 99°
2026-04-30 20:59 48.33935 11.48613 12865 ft 407 kts 81°
2026-04-30 20:59 48.34375 11.52863 10729 ft 410 kts 79°
2026-04-30 21:00 48.35413 11.61143 6988 ft 395 kts 81°
2026-04-30 21:00 48.35944 11.68998 4436 ft 357 kts 87°
2026-04-30 21:01 48.36219 11.76244 1502 ft 341 kts 82°
2026-04-30 21:01 48.36368 11.78959 1477 ft 167 kts 84°
2026-04-30 21:01 48.36395 11.80432 1463 ft 26 kts 99°
2026-04-30 21:02 48.36267 11.80584 1462 ft 24 kts 178°
2026-04-30 21:02 48.36155 11.80511 1464 ft 9 kts 258°
2026-04-30 21:02 48.36165 11.80400 1460 ft 15 kts 269°
2026-04-30 21:02 48.36159 11.80177 1465 ft 26 kts 263°
2026-04-30 21:03 48.36135 11.79894 1458 ft 29 kts 262°
2026-04-30 21:03 48.36108 11.79588 1467 ft 31 kts 262°
2026-04-30 21:03 48.36064 11.79214 1467 ft 31 kts 234°
2026-04-30 21:03 48.35937 11.79226 1462 ft 18 kts 123°
2026-04-30 21:04 48.35836 11.79406 1462 ft 31 kts 135°
2026-04-30 21:04 48.35719 11.79626 1470 ft 20 kts 94°
2026-04-30 21:04 48.35699 11.79707 1465 ft 0 kts 92°